Wind_Speed
29 28 27 26 24 23 23 24 23 22 20 18 17 15 15 14 12 12 14 14 13 12 10 7 4 3 2 3 2 2 1 1 3 4 6 8 8 7 6 6 5 6 6 6 7 9 10 11 13 14 12 11 12 13 14 16 16 17 18 19 19 20 20 20 21 21 21 21 22 22 23 23 23 23 22 20 19 18 17 15 15 14 15 15 15
29 28 26 25 24 24 24 23 22 21 20 19 17 16 16 15 15 15 16 15 13 12 9 6 5 4 3 3 2 2 1 1 3 5 7 8 8 7 6 5 6 6 5 6 8 9 10 12 15 15 14 15 16 17 17 18 18 20 21 22 22 23 23 23 24 25 25 25 24 24 24 26 26 27 26 24 23 20 19 18 17 16 15 15 14
28 26 26 25 24 24 23 23 22 21 21 19 18 17 17 17 18 18 18 16 14 11 8 5 4 4 3 3 3 2 1 1 3 5 7 8 8 6 5 5 5 5 5 6 8 9 10 13 16 17 16 16 18 18 18 19 20 21 23 23 24 24 24 25 26 27 28 28 29 28 28 29 29 29 29 27 25 23 21 21 20 18 17 17 15
28 27 26 25 24 24 23 22 22 21 20 19 18 18 19 20 21 21 19 16 14 11 8 6 4 3 2 3 3 2 1 2 3 5 6 8 8 6 5 5 5 5 6 7 8 9 10 14 16 17 16 17 19 19 19 20 21 22 23 24 24 24 24 25 27 28 29 30 31 32 32 32 32 31 30 28 27 26 25 24 23 21 20 19 17
28 27 26 25 25 24 23 22 22 21 20 19 19 19 21 23 24 22 20 17 13 10 9 8 6 4 3 3 3 3 3 3 4 5 6 8 8 7 6 5 5 6 7 8 8 9 10 13 16 17 17 18 19 20 20 21 21 22 23 24 24 23 24 25 27 28 30 32 33 33 33 34 34 34 33 32 30 28 27 27 26 24 23 22 20
28 27 27 26 25 24 23 22 22 21 19 19 20 21 24 26 25 22 19 16 13 11 9 8 7 5 5 5 5 4 4 4 4 6 7 7 8 7 6 5 5 6 7 8 8 9 11 13 15 16 17 18 20 20 20 21 21 22 23 24 23 23 24 25 27 29 31 34 35 35 36 36 36 36 37 37 35 33 31 30 29 28 27 26 25
29 29 28 26 25 24 23 22 21 20 18 19 22 25 26 25 23 20 18 14 12 10 10 9 8 7 6 6 7 6 5 4 5 6 6 6 7 7 5 5 5 5 7 8 9 10 11 13 14 16 17 18 19 20 20 20 20 21 23 23 23 23 25 26 27 29 32 34 35 37 37 37 37 37 36 36 36 36 37 37 36 34 32 31 29
30 29 28 26 25 24 23 22 21 18 18 22 26 27 25 23 21 19 16 14 12 11 10 10 9 8 7 7 8 7 6 5 5 5 4 4 5 6 5 4 4 5 7 9 10 10 11 12 13 15 16 17 18 18 18 18 19 20 22 22 22 23 25 26 28 30 32 34 36 36 36 37 37 37 36 37 38 38 38 38 38 38 36 35 34
30 30 29 26 25 24 22 21 19 17 20 26 28 26 23 21 20 18 17 15 14 13 12 10 10 9 9 9 9 8 6 5 5 3 2 3 4 5 5 4 5 5 7 8 10 10 10 11 12 12 13 15 16 17 16 16 17 19 20 21 22 22 24 26 28 30 32 34 36 36 37 38 38 38 38 39 39 37 35 35 36 37 36 35 36
30 30 28 26 25 23 21 21 18 17 24 29 27 24 22 21 20 19 18 17 15 14 13 12 11 10 10 10 10 9 7 5 4 1 1 3 4 5 5 5 5 5 6 8 9 9 10 10 10 11 11 13 14 15 14 14 15 17 19 21 22 22 23 25 28 30 31 34 35 36 38 39 39 38 37 36 35 35 35 36 37 37 37 37 38
30 30 27 25 24 22 21 20 17 17 27 30 26 23 22 21 20 19 19 18 16 15 14 12 12 11 11 10 10 8 7 5 3 2 2 3 4 5 5 5 5 6 6 7 8 9 9 9 9 10 10 11 12 12 11 12 14 16 17 20 22 22 23 24 25 27 29 31 33 35 37 38 37 36 36 34 34 35 36 37 38 39 41 42 42
30 29 26 24 23 21 21 20 17 21 30 31 25 23 22 21 20 19 18 18 16 15 14 12 12 12 11 11 10 8 7 5 5 4 4 4 5 5 6 6 6 6 6 6 7 7 7 7 7 8 9 10 10 10 8 10 12 14 16 18 20 22 22 22 23 24 26 27 30 32 34 35 36 36 36 35 34 33 34 35 37 39 42 43 43
29 27 25 23 22 22 21 19 18 26 32 29 25 24 22 21 20 19 18 17 15 14 13 12 12 12 11 11 10 9 7 6 6 5 5 5 5 6 6 6 6 7 6 6 6 5 5 5 6 7 8 8 9 8 6 7 10 12 15 17 18 20 20 21 21 22 22 23 26 30 32 32 34 35 35 35 34 33 33 34 36 38 40 42 42
29 26 25 23 22 22 20 18 22 30 31 28 26 24 22 21 19 18 16 15 13 13 13 13 13 12 12 11 10 9 8 8 7 7 7 6 6 6 6 6 6 7 6 6 5 4 4 3 4 6 7 6 7 7 4 5 8 10 13 15 16 17 18 19 20 20 20 21 23 26 28 29 31 32 33 34 35 35 35 34 34 37 39 40 40
29 26 25 23 22 22 19 19 26 30 29 28 27 25 23 21 18 17 15 13 12 13 13 13 13 13 12 10 9 9 9 9 8 8 7 7 7 6 6 6 6 6 6 6 5 4 3 3 3 5 5 6 6 5 3 4 6 9 11 13 14 15 16 17 18 18 19 20 20 22 24 26 27 29 30 31 33 35 35 33 33 34 35 37 38
29 27 26 24 23 22 20 22 28 30 30 29 28 25 23 21 18 16 14 13 13 14 14 13 13 13 12 10 9 9 10 10 9 9 8 7 6 6 6 6 6 6 6 6 5 5 4 4 4 4 5 5 5 5 2 3 5 7 10 12 13 14 15 16 16 17 18 18 18 19 21 23 24 26 27 29 31 32 31 32 32 33 33 36 39
31 30 28 26 25 23 21 24 29 31 31 31 28 26 24 21 19 17 15 13 14 15 15 14 13 12 11 10 9 10 10 11 10 9 9 7 6 6 6 6 6 6 6 6 5 5 5 5 5 4 4 5 5 4 2 2 4 6 9 11 12 13 14 15 14 15 16 17 17 18 18 20 21 23 25 28 30 32 33 35 37 36 36 38 40
32 31 28 25 24 23 21 25 31 33 33 32 29 26 24 21 19 17 14 12 13 15 16 15 14 12 11 10 9 10 11 12 11 10 10 8 6 6 6 6 6 6 6 5 5 4 4 5 5 4 4 4 4 3 1 1 3 5 8 9 11 12 14 14 13 13 13 14 15 15 15 17 20 22 24 26 29 32 35 37 37 38 39 40 39
33 30 26 23 24 23 23 28 35 35 33 31 28 25 24 22 20 17 13 11 13 16 17 15 14 13 12 11 10 11 12 13 12 11 10 9 7 6 5 6 6 6 6 5 4 4 4 4 4 4 4 4 4 4 2 2 3 4 6 8 10 11 12 12 11 12 12 12 12 13 14 16 19 21 23 25 28 31 33 34 35 36 39 40 40
31 26 22 22 24 23 25 32 36 33 30 28 26 24 23 21 19 16 14 12 14 17 17 15 15 14 13 13 12 12 13 13 13 11 10 9 8 6 6 6 6 6 6 5 4 4 3 3 4 4 3 3 4 4 3 2 3 4 5 7 9 9 10 10 10 10 10 10 11 12 13 15 18 20 22 24 26 28 30 31 32 34 36 38 40
27 22 20 22 24 23 26 32 33 30 27 25 24 23 21 19 18 16 13 13 15 18 18 16 15 15 14 14 14 14 13 12 12 12 10 9 8 7 6 6 6 6 6 5 4 4 3 3 3 3 3 3 3 3 3 2 3 4 5 6 7 8 8 9 9 9 9 9 10 11 12 14 17 19 21 23 25 26 27 28 30 31 33 35 37
23 20 20 22 24 25 27 31 31 30 27 24 23 22 20 19 17 15 14 14 16 19 19 18 17 17 17 16 16 16 14 12 12 12 11 9 8 8 7 6 6 6 6 6 5 4 4 3 3 3 3 3 3 2 1 2 3 4 4 5 6 7 8 9 9 8 7 8 8 9 11 13 16 18 20 22 23 24 25 26 27 28 31 33 35
21 21 22 22 24 27 30 30 30 30 27 24 22 21 20 19 18 16 14 14 17 20 20 19 19 19 19 18 17 17 15 13 12 12 11 9 8 8 8 8 8 7 7 6 5 5 4 2 2 3 3 4 3 3 2 0 2 2 2 4 6 7 8 9 9 7 6 7 7 9 11 13 14 17 18 20 22 22 22 23 24 25 27 30 31
23 24 24 25 26 28 30 30 29 28 26 24 22 21 20 19 18 17 15 15 19 21 20 20 21 21 21 20 19 18 17 15 13 12 10 9 8 8 9 9 10 9 8 7 6 5 4 2 1 2 4 4 4 3 3 1 0 1 1 2 4 6 7 8 7 6 6 7 8 9 11 12 13 15 17 18 19 20 20 21 22 22 24 27 28
26 26 27 27 27 28 29 29 29 27 25 24 22 21 21 20 19 18 16 16 19 20 21 22 22 22 22 22 21 20 18 17 15 13 11 10 9 9 10 11 11 9 9 8 7 5 4 2 1 2 4 5 4 4 3 2 2 1 1 2 2 3 4 5 5 5 5 7 8 9 10 11 12 14 15 16 17 18 18 19 20 21 23 24 25
25 27 28 28 28 29 28 28 28 27 24 22 21 21 21 20 19 18 17 18 19 20 21 22 23 23 24 23 23 22 20 18 17 15 14 13 11 11 11 12 11 11 10 9 8 6 5 3 1 1 2 4 4 4 3 3 3 2 2 2 2 2 3 3 4 4 5 7 8 8 9 9 10 11 12 14 15 16 17 18 18 19 21 22 23
26 28 30 29 29 30 29 28 29 27 24 23 24 23 22 20 18 18 17 19 21 21 21 23 23 24 25 25 24 23 21 20 19 18 17 16 13 12 12 12 12 12 11 10 8 6 5 4 2 1 1 2 3 3 3 4 3 3 3 3 3 3 3 3 4 4 5 6 7 8 8 8 8 9 11 12 14 15 16 16 17 18 19 20 21
25 27 28 28 30 32 31 29 28 26 25 26 26 24 22 19 18 16 15 18 21 21 22 23 24 24 25 26 26 25 24 23 21 19 18 16 14 13 13 14 14 13 12 11 9 8 6 5 4 2 1 0 1 2 3 3 2 2 2 3 3 3 3 3 4 4 5 6 6 6 7 7 8 9 10 11 12 13 14 14 15 16 17 17 20
25 27 28 29 31 32 30 27 25 24 26 27 26 23 20 17 16 15 14 15 18 19 19 21 22 23 24 25 26 25 24 22 20 18 16 14 13 13 14 14 14 13 12 11 10 9 8 7 5 4 3 2 1 0 1 1 1 1 1 2 3 3 3 3 4 4 5 5 6 6 6 7 8 8 9 10 11 11 11 12 13 14 15 16 18
29 30 30 31 31 30 27 25 24 25 27 28 26 22 19 18 16 14 13 14 16 17 17 18 19 21 22 23 23 22 20 18 18 18 16 14 14 14 15 15 15 13 12 12 11 10 9 8 6 5 4 3 2 2 1 1 1 1 0 1 2 3 3 3 3 4 5 5 6 6 6 7 8 8 9 10 11 11 11 11 12 12 13 14 16
32 32 31 30 28 26 25 24 26 28 29 28 25 21 20 19 17 15 14 14 15 16 16 16 17 18 19 19 20 19 18 17 17 17 16 15 16 16 17 16 15 14 13 12 11 10 9 8 7 6 5 4 4 4 3 3 3 3 2 1 2 2 3 3 4 4 5 5 6 7 7 8 8 8 9 10 11 11 11 11 11 11 12 13 14
32 31 29 27 25 24 25 26 28 30 30 28 25 22 20 19 19 18 17 16 14 15 16 16 16 16 16 17 17 17 18 18 17 16 15 16 17 17 17 17 17 16 15 13 12 10 9 8 7 6 6 6 5 5 5 5 5 4 3 3 3 3 3 4 4 5 5 6 7 7 8 8 9 9 9 10 11 11 12 12 12 12 12 12 12
32 28 26 25 24 25 27 29 30 30 29 27 24 22 21 20 20 20 19 17 15 16 17 16 14 14 14 15 15 15 15 15 16 17 17 17 17 17 18 18 18 18 17 15 13 11 10 9 8 8 7 7 6 7 7 6 6 6 5 4 3 3 4 4 5 5 5 6 6 7 8 8 9 9 9 10 11 11 12 12 12 12 12 13 13
30 27 25 25 25 26 28 30 31 30 28 26 23 22 21 21 20 20 21 19 19 20 19 17 16 15 14 15 15 15 14 13 15 17 17 17 17 17 18 19 20 19 18 17 14 13 11 10 9 9 8 7 7 7 7 7 7 7 6 5 4 4 4 4 5 5 6 6 6 7 7 8 8 9 9 10 10 11 12 12 12 12 12 13 13
28 27 25 25 26 27 28 30 31 30 28 26 23 22 21 20 21 21 21 21 23 24 22 20 19 18 17 17 17 16 14 13 13 16 17 18 18 18 19 21 22 21 20 18 16 14 12 11 10 9 8 7 7 8 8 7 7 7 7 6 6 5 6 6 5 5 6 7 7 7 7 7 8 9 9 9 10 11 12 12 13 13 13 13 13
28 27 26 26 27 29 30 30 29 28 27 26 23 22 21 21 21 22 22 22 24 25 23 21 20 20 19 19 18 17 16 14 13 14 17 19 20 21 22 22 22 21 20 19 17 15 13 12 11 9 8 8 8 8 8 8 8 8 8 8 7 7 7 7 7 7 7 8 8 8 8 8 8 9 10 10 10 11 12 13 13 13 13 13 13
28 28 26 25 27 29 31 30 28 27 26 25 24 22 21 22 22 22 23 25 26 24 23 23 23 22 22 21 20 19 18 16 15 15 17 19 22 23 23 22 21 21 20 19 18 16 14 13 12 10 9 9 9 9 8 8 8 8 9 9 8 8 8 8 8 8 8 9 9 9 9 9 8 9 9 10 10 11 11 12 12 13 13 13 13
28 28 26 24 26 29 32 31 28 26 25 24 23 22 22 23 24 24 25 26 26 24 24 24 25 24 24 22 21 21 21 19 19 19 19 21 23 23 23 22 22 21 20 19 18 17 15 13 12 11 10 10 10 10 9 9 9 9 9 9 9 9 9 9 9 9 10 10 10 10 10 10 10 9 9 10 10 11 11 11 12 12 12 13 13
28 29 28 24 23 27 32 32 28 25 24 23 23 23 24 25 25 25 26 27 26 24 24 24 25 25 24 23 23 23 23 22 22 21 21 22 22 22 22 22 22 22 21 20 19 17 16 14 13 12 11 11 11 10 10 10 10 10 10 10 10 10 10 11 11 11 11 11 11 11 11 11 11 11 10 10 10 10 11 11 12 12 12 12 12
27 29 30 27 23 25 30 32 28 24 23 23 23 23 25 26 26 26 27 27 24 23 23 24 25 25 24 24 24 24 23 22 21 21 21 22 22 23 23 23 22 22 21 20 19 18 16 14 13 12 11 11 11 11 11 11 11 10 10 11 11 11 11 12 12 12 12 13 13 13 13 13 13 12 12 11 10 10 11 11 11 11 11 11 12
26 29 31 30 26 26 30 31 29 25 23 22 22 23 25 25 25 25 26 25 23 22 23 24 24 24 24 24 24 23 22 21 20 20 21 22 22 23 23 22 22 22 21 20 19 18 17 15 14 13 12 12 13 13 13 12 11 11 11 11 12 13 13 13 13 13 13 13 13 13 13 14 14 14 13 12 12 12 12 12 12 11 11 11 12
27 29 30 30 29 29 30 30 28 26 24 22 22 23 24 24 24 25 24 23 23 23 23 23 23 23 24 24 24 23 23 21 20 20 21 22 22 22 22 22 22 21 21 20 19 18 17 16 15 14 13 13 13 14 14 14 13 13 13 13 14 15 15 15 15 15 15 14 14 14 14 14 15 15 14 14 14 13 13 13 13 12 12 12 13
26 28 29 30 30 30 29 28 27 26 24 22 22 22 23 23 23 23 23 23 23 23 23 23 23 23 24 25 25 25 24 23 21 21 21 22 22 22 22 22 21 21 21 21 20 19 18 17 17 16 15 14 14 15 15 15 14 14 15 15 16 16 16 16 16 16 16 17 16 15 15 15 15 16 16 16 15 15 15 14 14 13 13 13 14
25 26 27 28 29 28 28 27 25 23 21 21 21 20 21 22 22 22 22 23 23 24 24 24 23 23 24 25 26 26 26 24 22 21 21 21 22 21 21 21 22 22 22 22 21 20 20 19 18 18 17 16 16 16 16 16 15 15 15 15 15 16 16 17 17 17 18 18 18 18 17 17 17 17 17 17 17 17 16 16 15 15 14 15 15
24 24 25 27 29 28 27 26 24 21 19 19 19 18 19 21 22 22 22 22 23 24 25 24 24 24 25 25 26 26 25 23 22 21 21 21 21 21 20 21 22 23 23 22 21 21 21 20 20 19 18 17 16 16 16 16 15 14 14 14 15 15 15 16 17 17 18 19 20 20 20 19 18 18 18 18 17 17 17 17 16 16 16 16 16
24 23 24 26 27 27 27 25 23 20 18 17 17 16 18 20 21 21 20 19 19 20 20 21 22 22 23 23 24 24 23 21 21 21 21 20 20 20 20 21 22 23 23 22 22 21 21 20 20 19 18 16 15 15 16 16 15 15 15 15 15 15 15 16 17 18 19 20 20 21 21 21 21 20 20 19 18 18 18 18 18 18 18 18 18
23 23 22 23 24 25 25 24 22 19 18 16 15 14 15 16 17 17 15 14 14 14 14 14 15 16 17 18 20 21 20 20 19 19 19 18 18 17 17 18 18 19 20 20 21 22 23 22 21 19 18 17 16 16 16 16 15 15 15 15 16 16 16 17 18 19 20 20 21 21 21 22 23 23 22 22 22 22 21 21 20 20 19 19 19
24 24 22 21 21 23 23 22 20 18 16 14 13 12 13 14 15 14 13 12 11 10 10 10 10 9 10 11 13 16 17 18 17 17 16 15 14 13 13 14 15 16 17 19 21 23 24 24 22 20 19 18 18 17 16 16 15 15 16 16 17 17 17 18 18 19 20 20 21 22 23 24 24 23 23 23 23 23 22 22 21 20 20 20 20
24 24 21 19 19 20 20 19 18 16 14 12 13 13 14 15 15 14 11 10 9 9 9 8 8 9 8 8 9 11 12 13 14 14 14 14 13 13 13 14 15 16 17 19 21 23 24 24 24 22 21 20 19 18 17 16 17 17 18 18 18 18 18 19 19 19 20 20 21 22 23 24 23 22 21 20 20 20 20 20 20 20 20 21 21
21 19 17 15 16 17 17 16 15 13 13 14 14 14 15 16 14 11 9 9 9 9 9 8 9 10 10 9 9 9 11 12 13 13 13 14 14 15 15 15 15 15 16 16 17 18 20 21 22 21 21 20 19 19 19 19 19 19 19 19 19 19 20 20 20 20 21 21 22 23 23 24 24 23 21 20 20 20 21 21 21 22 22 23 24
15 14 13 14 15 16 15 14 13 13 14 15 14 14 15 15 11 9 10 11 11 10 10 10 10 10 10 9 9 9 10 12 13 14 15 15 15 15 16 15 15 15 15 15 15 15 15 16 17 18 19 19 19 20 21 21 21 21 21 21 22 22 23 24 24 24 24 25 26 26 26 26 26 26 25 25 25 25 26 26 26 27 28 28 29
Wind_Direction
203 204 205 205 207 206 205 209 212 215 220 222 222 224 228 230 229 220 205 197 199 205 210 203 165 110 131 170 160 138 128 9 9 2 1 13 23 29 39 37 27 28 27 23 27 30 32 40 49 52 52 55 60 63 61 59 56 52 49 47 46 46 44 44 44 42 39 36 31 27 24 22 20 18 16 15 14 12 6 1 357 352 349 350 350
203 204 204 202 203 205 206 209 212 217 220 221 221 224 227 227 224 215 206 201 203 210 213 190 139 115 140 167 159 142 112 11 357 350 355 11 21 30 39 38 36 40 40 42 46 47 48 53 59 61 63 68 71 71 69 64 58 55 52 50 50 48 46 45 45 43 40 38 36 34 31 28 27 25 23 21 20 16 12 10 8 5 2 0 357
202 202 202 201 202 206 209 212 215 219 222 223 224 224 227 227 219 210 205 203 205 207 203 175 147 140 151 164 166 152 130 332 335 338 349 10 22 33 43 42 45 52 54 59 61 60 59 62 65 66 67 70 73 71 68 65 59 57 55 52 50 49 47 46 46 45 43 40 38 37 35 33 31 30 30 28 25 20 18 17 17 17 14 9 5
201 201 201 202 205 210 214 216 219 221 223 225 228 229 229 222 211 205 204 203 204 201 188 176 178 176 172 185 187 185 238 291 313 328 346 9 25 42 51 46 51 65 71 75 75 69 67 69 69 69 69 71 72 70 67 64 61 58 56 54 51 50 49 49 48 48 46 45 42 40 38 37 35 34 34 34 31 26 23 23 24 26 23 17 12
202 201 202 205 208 213 216 218 221 223 223 228 234 232 222 211 203 201 202 202 200 193 183 185 196 203 209 215 217 225 251 282 304 323 346 7 30 49 57 53 59 74 83 86 85 79 75 75 73 71 70 71 72 70 67 63 61 59 57 54 52 50 50 49 49 48 47 46 44 42 41 40 39 37 36 37 37 34 32 30 28 30 30 27 22
203 203 204 207 211 214 217 221 223 223 225 231 230 219 207 201 198 198 200 201 196 187 186 194 205 213 219 222 229 239 251 272 300 325 346 10 38 55 58 61 70 84 92 93 92 88 84 81 77 73 70 71 71 70 68 64 61 59 56 53 51 50 49 49 49 49 48 47 44 42 40 40 39 38 36 36 37 38 39 38 35 33 33 32 29
203 204 206 209 213 217 220 222 222 223 227 225 213 203 197 196 196 196 198 199 193 190 195 203 211 215 218 225 231 241 251 268 304 329 350 18 46 64 68 71 82 96 102 99 95 91 90 88 82 77 72 71 71 70 68 64 61 58 55 51 48 47 47 47 47 48 48 47 45 43 41 39 39 39 38 38 39 38 39 40 39 37 36 33 31
205 206 209 211 214 219 221 220 220 223 221 209 200 196 193 192 194 195 194 194 194 199 207 214 218 216 219 228 232 238 250 272 308 332 358 33 59 83 91 89 97 109 112 107 100 94 94 93 88 82 76 72 71 70 68 65 61 58 54 51 47 45 45 44 44 46 47 47 46 44 42 41 39 38 37 37 38 39 40 41 41 40 39 36 33
209 209 211 213 216 220 219 217 220 218 206 199 196 194 191 189 191 193 192 194 199 206 212 220 225 226 229 232 230 232 245 272 301 324 24 64 87 110 117 112 111 119 121 115 107 101 98 95 91 86 80 74 71 68 66 64 61 57 54 51 48 45 43 42 42 43 44 45 45 44 43 41 39 37 37 37 38 39 40 42 44 44 43 42 39
212 211 212 214 216 217 215 217 221 210 198 197 195 191 189 189 192 193 194 197 203 209 213 220 228 232 235 232 227 228 239 262 279 271 114 100 115 131 136 129 123 128 129 121 115 108 101 97 92 86 82 76 71 66 62 61 60 57 53 51 48 45 41 40 41 41 42 44 45 43 43 43 40 39 40 40 40 40 40 41 43 43 43 43 42
213 213 214 214 214 214 214 219 224 209 197 196 194 191 191 193 195 196 197 200 205 210 215 223 227 228 230 227 225 228 234 240 239 215 171 142 140 142 143 138 133 136 132 123 119 116 109 102 92 85 81 78 74 69 60 56 57 55 52 50 48 45 40 38 39 39 41 44 46 45 44 43 42 41 41 40 40 41 41 42 42 42 41 40 39
213 214 215 214 214 215 217 222 222 204 195 194 194 194 195 196 198 200 202 206 210 215 220 223 222 220 221 221 221 224 225 219 213 205 186 166 155 149 147 146 140 138 135 126 123 126 123 112 97 86 82 78 79 76 61 52 54 52 49 49 48 45 42 38 38 39 40 42 46 47 45 43 41 40 40 40 40 41 42 43 44 44 43 41 39
214 214 214 214 216 217 222 226 213 196 193 194 196 197 198 201 203 204 208 212 216 219 218 215 213 214 216 218 219 218 213 205 200 194 181 165 154 152 156 154 145 137 137 135 134 140 138 119 100 92 88 83 84 84 67 48 50 48 46 49 50 48 45 42 40 40 41 43 46 48 46 43 41 40 38 38 39 41 43 44 46 47 46 44 42
213 214 214 216 218 220 226 221 201 193 193 195 198 200 202 204 205 207 211 215 217 215 210 206 208 210 211 213 215 212 204 199 192 181 172 162 154 158 164 158 149 141 140 143 149 157 152 127 103 99 101 97 91 91 74 43 44 44 43 47 50 49 48 47 45 43 42 44 48 48 47 44 42 40 39 39 39 41 43 44 46 48 49 47 45
211 214 215 216 217 222 224 207 193 193 196 198 200 203 205 206 207 208 213 217 217 211 207 206 207 207 206 207 209 205 196 189 183 173 167 162 157 163 168 162 157 151 145 145 149 151 145 134 118 109 115 116 103 95 77 35 37 38 36 40 45 46 47 48 48 47 46 47 49 49 48 45 43 41 40 40 41 42 44 45 46 48 49 49 47
214 215 215 217 219 221 216 200 194 196 198 199 202 204 204 205 207 209 213 216 213 207 204 206 206 204 203 202 204 201 188 178 174 167 163 163 162 168 172 169 167 164 157 152 148 139 128 120 119 119 128 130 115 103 80 18 22 25 27 33 39 42 44 47 49 50 49 49 50 50 48 45 43 42 41 42 42 42 44 46 46 45 45 46 45
216 217 220 222 221 217 209 199 197 199 200 201 203 203 203 204 207 211 215 215 208 203 202 201 202 205 205 201 201 199 185 172 168 165 161 162 169 175 180 179 176 172 166 157 148 136 122 113 114 124 136 138 125 112 94 349 358 7 15 28 36 39 41 44 47 50 51 52 52 51 50 46 44 43 41 41 41 40 41 43 42 41 42 44 44
215 220 223 224 219 215 208 201 199 200 202 203 202 201 202 204 208 212 216 216 207 202 201 199 199 202 204 200 198 197 185 172 167 167 164 164 172 182 187 188 184 179 172 161 148 137 125 119 120 132 144 146 142 135 136 312 335 352 6 21 32 36 38 39 42 46 51 54 54 52 50 46 45 44 42 42 41 40 41 42 41 41 43 43 43
217 221 223 223 220 215 206 200 199 200 202 202 200 200 201 204 208 210 214 217 210 204 202 202 201 199 198 196 192 191 188 177 170 171 169 167 173 182 189 195 195 188 180 170 157 147 141 137 137 143 149 150 160 172 188 270 314 340 359 12 24 32 32 31 34 39 45 52 54 51 49 46 43 43 42 41 41 40 41 43 42 43 44 43 41
217 218 220 223 221 214 205 200 197 198 202 200 196 199 203 207 208 210 214 216 209 204 203 204 206 202 196 192 187 188 191 183 173 171 171 170 173 180 191 202 210 203 189 178 174 166 159 156 150 145 144 149 169 186 201 249 301 328 345 2 20 28 24 17 18 25 34 44 49 47 46 43 41 41 41 40 39 39 40 42 43 44 45 44 42
214 217 220 219 216 213 207 201 197 199 204 200 195 200 208 213 215 218 222 219 208 204 203 204 206 204 197 191 187 188 191 189 180 174 172 173 173 178 190 200 210 213 201 187 185 178 165 155 140 126 123 129 153 182 204 231 272 298 323 358 19 19 9 2 4 12 22 35 45 47 45 41 38 38 38 36 37 37 37 39 42 44 44 43 42
214 220 218 213 213 210 203 197 197 201 203 200 199 204 211 218 222 228 232 224 208 203 204 203 203 203 199 193 190 190 191 192 188 176 168 171 177 180 190 198 203 210 209 200 194 189 183 166 136 115 107 100 103 130 175 222 254 279 322 6 13 1 349 347 352 1 14 27 39 43 43 38 33 33 33 32 32 34 36 38 41 43 44 43 41
219 222 214 211 212 207 198 195 198 202 201 200 204 210 215 220 225 231 234 223 207 203 204 203 202 202 201 196 193 193 193 191 187 175 163 166 179 185 189 196 200 204 209 211 208 202 198 185 125 101 97 92 82 75 78 131 249 272 336 0 350 338 333 332 338 355 14 29 37 37 38 35 29 27 28 27 28 31 34 38 41 44 45 43 42
221 217 209 208 207 201 195 196 200 203 203 202 206 213 220 224 227 232 232 219 207 204 204 203 202 203 203 200 196 195 193 189 185 178 170 172 182 189 192 199 204 205 206 210 211 206 199 185 110 80 83 87 82 70 65 75 193 236 354 350 331 326 325 325 333 351 14 33 38 33 32 31 26 23 22 21 24 29 34 38 41 44 45 44 42
215 209 205 205 202 194 192 198 203 204 204 205 209 215 223 227 230 232 229 216 208 206 204 204 204 204 206 206 201 197 195 191 187 184 185 189 193 196 201 205 207 204 203 206 209 205 197 189 146 77 76 80 83 81 79 90 112 124 79 42 1 337 332 333 342 353 11 31 35 31 28 26 23 21 18 15 19 27 34 38 40 41 43 43 42
212 205 202 201 197 191 192 200 205 204 203 208 214 221 227 230 232 234 228 215 208 208 207 205 204 205 207 209 206 202 197 195 192 190 194 200 204 206 206 206 204 201 201 206 209 204 197 200 204 89 69 74 83 89 90 92 97 97 79 70 66 36 17 8 3 5 16 27 28 26 25 22 17 16 14 12 17 26 33 36 37 38 39 40 40
212 204 200 197 195 194 196 201 202 201 204 210 216 221 226 230 234 236 230 216 208 208 207 207 206 206 207 209 209 206 202 200 199 198 200 205 209 209 207 205 203 202 203 208 211 205 198 202 214 228 39 66 87 96 93 87 82 74 62 59 61 54 40 28 18 16 21 25 24 22 22 17 11 9 10 12 18 26 31 32 32 34 35 35 37
214 206 201 199 197 197 199 201 200 202 208 213 216 219 224 230 237 243 238 223 215 212 209 209 211 211 209 210 210 208 207 207 207 207 207 209 209 208 205 204 204 205 206 210 211 207 203 208 219 233 254 309 93 95 92 90 82 70 58 52 50 48 38 29 20 14 19 23 21 17 15 11 8 7 9 13 20 26 29 29 28 30 30 29 33
214 208 203 200 199 199 201 203 205 209 212 213 215 221 227 234 243 250 244 229 223 222 220 218 217 215 213 214 213 212 212 212 211 211 213 214 211 208 205 204 205 206 207 208 208 207 207 212 219 229 241 256 260 85 98 108 107 79 54 46 40 29 17 10 6 7 16 20 15 10 9 8 6 6 6 8 14 20 23 24 25 28 28 26 27
208 206 203 201 201 202 205 208 213 216 214 212 213 218 225 232 240 246 239 226 223 224 224 226 226 222 219 218 219 222 224 220 213 210 212 211 207 203 204 205 206 207 207 205 204 206 208 210 215 224 237 252 259 256 246 231 221 225 280 1 9 6 354 347 353 2 11 16 10 6 6 3 2 2 2 2 4 5 7 12 16 20 23 22 22
207 204 204 205 206 208 212 215 216 215 213 213 214 218 224 228 231 232 225 220 219 217 215 220 227 228 226 224 223 224 224 222 217 213 209 206 203 201 202 205 207 210 210 205 203 205 206 208 214 222 231 243 248 244 237 238 245 244 246 276 307 326 327 330 340 350 356 3 4 2 2 1 359 360 0 0 359 358 357 0 4 9 14 16 14
210 206 207 210 213 216 218 218 215 212 211 212 215 221 228 230 229 222 214 211 213 210 208 212 218 221 223 225 224 221 217 215 214 212 209 207 205 204 205 207 210 213 213 208 206 208 207 208 215 223 227 233 239 238 233 235 244 251 252 261 276 299 312 315 323 330 337 346 351 353 355 356 355 355 355 354 355 355 355 356 358 1 5 6 5
213 212 215 218 219 219 220 217 214 213 214 216 218 225 232 235 233 223 214 209 206 203 202 202 202 206 212 215 216 219 220 217 213 210 208 208 209 209 209 209 211 213 213 211 209 209 208 209 215 222 227 229 232 237 236 236 242 250 255 261 271 288 301 307 312 318 324 332 338 343 349 350 349 350 348 345 347 350 352 354 356 358 359 359 358
218 219 224 226 222 220 221 219 216 217 218 220 226 232 237 239 237 227 216 208 201 197 194 189 186 192 201 206 209 215 220 223 220 215 211 211 213 214 213 210 210 212 212 211 211 212 213 215 216 220 226 230 233 239 241 240 244 251 257 264 271 280 288 295 304 309 314 321 327 333 341 342 342 344 343 341 342 345 345 347 352 356 360 360 358
222 222 225 228 227 226 225 223 221 221 221 223 230 237 239 240 236 228 221 213 202 196 192 189 187 189 194 201 206 211 215 222 225 223 220 218 218 218 214 211 210 211 210 211 214 218 222 225 225 226 232 237 241 245 246 246 249 254 260 264 269 275 280 287 297 304 306 310 315 323 332 334 333 336 339 340 340 339 340 343 346 349 354 356 356
224 223 224 228 230 230 227 224 224 226 226 228 233 237 240 241 236 228 222 216 207 201 198 197 196 196 198 201 204 208 213 221 228 230 227 223 220 219 219 216 213 212 212 215 219 222 226 230 231 233 240 247 251 251 251 253 255 257 261 265 269 275 282 288 297 301 299 299 304 311 318 323 325 328 332 336 337 337 337 340 341 342 346 347 348
225 225 225 227 230 230 227 225 225 227 229 232 234 236 239 239 234 226 221 215 209 207 208 208 207 206 205 205 207 211 215 221 229 232 227 220 216 218 220 220 218 216 216 219 224 227 230 233 233 235 243 254 259 259 259 260 261 260 263 265 268 273 279 284 290 294 293 293 296 302 307 312 317 320 323 328 332 332 333 335 335 336 339 343 344
229 229 228 227 229 230 227 225 225 227 230 232 234 237 239 236 229 224 220 215 213 215 217 216 215 215 213 211 213 217 219 222 226 226 221 216 214 216 218 219 219 219 220 223 227 231 234 234 235 239 246 256 262 264 265 268 268 268 267 267 267 269 273 277 281 283 284 286 289 293 297 301 305 310 314 319 323 326 329 332 331 330 333 338 342
231 230 228 227 232 234 231 226 225 229 233 234 235 237 236 231 226 222 219 217 218 222 224 222 222 222 220 217 218 221 223 225 228 228 222 217 217 219 219 220 221 221 223 225 228 232 234 235 238 242 247 255 262 265 269 272 273 273 273 271 270 271 271 274 277 279 280 282 283 284 289 292 295 300 306 310 314 319 322 325 327 327 327 331 336
231 229 226 227 233 238 235 228 226 230 236 237 237 235 231 226 223 222 221 222 225 229 230 230 230 230 228 226 226 229 232 235 238 237 229 223 222 223 223 224 225 225 226 228 230 233 235 238 241 245 249 256 263 268 272 275 274 275 275 273 273 274 275 275 277 278 279 280 279 279 282 285 288 292 297 300 303 307 310 314 318 320 321 322 325
232 230 228 228 232 235 233 229 228 232 237 239 239 235 229 224 224 224 225 227 231 233 235 236 236 236 235 235 237 240 244 249 253 249 238 230 228 228 228 229 228 228 230 231 233 235 238 241 245 250 254 261 266 270 273 273 272 273 277 278 279 280 281 280 280 281 281 280 278 277 278 281 284 286 289 291 293 296 299 302 305 308 310 312 314
233 232 230 230 229 228 228 229 231 233 234 237 239 235 228 224 224 226 227 231 235 238 240 240 240 239 239 240 241 244 248 253 256 252 243 235 232 232 233 232 231 231 233 234 236 238 242 245 248 253 259 264 267 271 273 273 273 276 280 284 285 286 286 285 283 281 280 278 277 276 277 279 281 282 282 282 284 286 289 292 295 298 300 301 303
237 235 234 233 230 225 225 229 232 232 233 237 237 233 229 227 227 228 230 234 237 240 242 244 244 243 243 242 242 245 249 252 251 246 240 236 235 235 235 234 233 233 235 237 239 241 245 247 251 256 261 265 269 273 275 275 276 278 282 287 290 291 290 288 285 281 280 279 278 277 277 277 277 278 278 277 277 279 281 284 286 289 292 293 295
238 234 232 233 231 227 226 229 231 232 235 238 237 233 232 232 232 232 234 237 241 243 244 245 247 247 247 246 245 246 249 249 246 239 235 234 235 237 238 237 236 236 238 239 241 243 246 251 254 257 259 261 267 273 275 274 274 277 281 286 291 293 293 291 288 285 282 280 278 277 277 277 276 275 274 274 276 277 278 279 281 283 286 287 289
235 229 226 227 227 227 228 231 232 230 229 229 228 231 236 238 238 239 242 244 246 248 248 247 248 248 247 246 245 246 247 246 242 237 234 233 234 236 238 238 238 240 241 242 243 245 248 252 256 257 257 259 265 271 275 274 274 276 280 284 289 293 297 298 295 290 285 281 279 279 278 278 278 276 274 274 274 275 275 276 278 279 281 283 285
231 227 225 225 226 226 226 228 228 224 218 213 212 220 234 241 243 245 247 248 249 249 248 246 246 245 243 240 240 242 243 242 240 237 235 235 237 239 239 240 240 242 243 243 242 244 247 250 253 257 259 261 264 269 273 275 275 276 279 283 287 292 297 300 299 295 291 287 285 283 280 278 277 276 275 274 273 273 274 275 276 278 279 280 282
229 226 225 228 231 229 226 226 224 218 213 209 209 217 230 238 240 242 245 249 251 248 239 233 233 235 237 238 239 241 241 240 239 238 238 240 242 244 243 243 243 245 247 247 247 248 249 250 252 255 260 264 266 268 271 274 276 276 278 281 284 289 294 297 297 296 295 292 290 288 285 282 280 278 276 276 274 274 276 277 278 280 280 280 281
225 222 224 231 236 232 227 223 216 207 202 205 209 212 219 227 232 237 247 256 252 235 217 211 216 228 239 247 250 248 243 240 239 238 239 241 245 246 247 250 253 256 258 259 257 254 253 251 251 254 260 267 270 269 268 270 273 275 278 281 284 287 291 293 293 294 293 292 290 289 287 286 286 284 282 280 278 278 278 279 280 281 281 281 282
223 223 226 232 232 228 223 215 202 191 191 200 205 207 214 224 231 236 246 256 248 228 217 221 229 238 250 261 263 255 245 238 238 240 243 247 251 252 255 261 264 265 265 266 264 261 258 255 254 257 262 268 269 268 268 271 274 277 280 283 285 287 288 288 288 289 289 288 288 288 287 288 289 288 286 284 282 280 280 279 279 280 280 279 280
221 220 220 218 213 210 209 206 199 193 193 198 203 212 222 227 228 230 240 252 250 242 241 247 248 246 251 261 265 260 251 245 246 250 252 254 254 253 255 261 266 268 269 271 271 270 266 262 260 261 264 266 266 268 271 275 278 280 282 283 284 285 285 284 283 283 283 284 285 286 285 285 285 284 282 280 278 277 276 277 278 278 278 277 278
203 201 203 201 195 192 196 203 208 207 205 205 212 222 227 226 225 230 242 252 256 256 259 263 260 253 252 258 266 269 267 263 261 262 262 261 258 255 256 262 269 273 275 277 277 277 275 272 269 269 269 270 271 274 276 278 280 280 281 280 280 280 280 280 280 280 280 280 281 281 281 280 280 279 277 276 274 273 273 273 274 275 276 277 278
Height
1516 1518 1520 1522 1524 1525 1527 1530 1531 1533 1534 1535 1536 1537 1537 1538 1538 1539 1539 1540 1541 1540 1540 1541 1541 1541 1541 1541 1541 1541 1541 1542 1542 1542 1542 1541 1540 1539 1539 1538 1537 1537 1536 1536 1535 1534 1534 1533 1533 1532 1531 1530 1529 1527 1526 1525 1524 1522 1521 1520 1518 1517 1516 1514 1513 1512 1511 1508 1506 1503 1500 1496 1493 1490 1488 1485 1483 1480 1478 1475 1473 1470 1468 1466 1464
1516 1518 1520 1522 1524 1525 1527 1529 1531 1533 1534 1534 1536 1536 1537 1537 1537 1538 1538 1539 1540 1540 1540 1541 1541 1541 1541 1541 1541 1542 1542 1542 1542 1542 1542 1542 1541 1540 1539 1539 1538 1537 1537 1537 1536 1536 1536 1535 1534 1533 1532 1531 1530 1529 1528 1527 1525 1524 1522 1521 1520 1518 1517 1516 1514 1513 1511 1509 1507 1504 1501 1497 1494 1491 1487 1484 1482 1480 1478 1475 1472 1470 1467 1465 1463
1515 1517 1519 1521 1523 1525 1527 1529 1531 1532 1533 1534 1535 1535 1536 1536 1536 1537 1538 1539 1539 1539 1540 1540 1541 1542 1542 1542 1542 1542 1543 1543 1543 1543 1542 1542 1542 1541 1540 1539 1539 1538 1538 1538 1538 1537 1537 1536 1535 1535 1534 1533 1531 1530 1529 1528 1527 1525 1525 1524 1522 1520 1519 1517 1515 1514 1512 1510 1507 1504 1501 1498 1495 1492 1489 1486 1483 1481 1478 1476 1473 1470 1468 1465 1463
1514 1516 1519 1521 1523 1525 1526 1528 1530 1531 1532 1533 1534 1534 1534 1535 1536 1537 1538 1538 1539 1539 1539 1540 1541 1542 1542 1543 1543 1543 1543 1543 1543 1543 1543 1543 1542 1541 1541 1540 1540 1539 1539 1539 1539 1539 1538 1537 1537 1536 1536 1534 1533 1532 1531 1530 1529 1527 1527 1526 1524 1522 1521 1519 1517 1516 1514 1512 1509 1506 1503 1500 1497 1494 1492 1488 1485 1482 1479 1476 1474 1472 1469 1466 1464
1514 1516 1518 1520 1522 1524 1526 1528 1529 1530 1531 1532 1532 1533 1533 1534 1535 1536 1537 1538 1538 1539 1539 1540 1541 1542 1542 1543 1543 1544 1544 1544 1544 1543 1543 1543 1543 1542 1542 1541 1541 1541 1540 1540 1540 1540 1539 1539 1538 1538 1537 1536 1534 1533 1532 1531 1531 1530 1529 1528 1526 1525 1523 1521 1519 1518 1515 1513 1510 1508 1505 1502 1499 1496 1493 1490 1487 1484 1481 1478 1475 1473 1471 1468 1466
1513 1515 1518 1519 1521 1523 1525 1527 1528 1529 1530 1530 1530 1531 1532 1533 1535 1536 1537 1538 1538 1538 1539 1540 1541 1542 1543 1543 1544 1544 1544 1544 1544 1543 1543 1543 1543 1543 1542 1542 1542 1541 1542 1542 1542 1541 1541 1540 1540 1540 1539 1537 1536 1535 1534 1533 1532 1532 1531 1529 1528 1527 1525 1523 1521 1519 1517 1514 1512 1509 1506 1503 1500 1497 1494 1491 1488 1485 1482 1480 1477 1474 1471 1469 1467
1513 1515 1517 1518 1520 1522 1524 1526 1527 1528 1529 1529 1529 1530 1532 1533 1535 1536 1537 1538 1538 1538 1539 1540 1541 1542 1543 1544 1544 1544 1545 1544 1544 1544 1544 1544 1544 1543 1543 1542 1542 1542 1543 1543 1543 1542 1542 1542 1541 1541 1540 1539 1537 1536 1535 1535 1534 1533 1532 1531 1530 1528 1526 1525 1523 1521 1518 1516 1513 1510 1508 1505 1502 1500 1497 1494 1491 1487 1483 1480 1477 1475 1472 1470 1468
1512 1514 1516 1518 1520 1521 1523 1525 1526 1527 1527 1527 1528 1530 1531 1533 1535 1536 1537 1537 1538 1539 1539 1540 1541 1542 1543 1544 1544 1544 1545 1544 1544 1544 1544 1544 1544 1544 1543 1543 1543 1544 1544 1544 1544 1544 1543 1543 1543 1542 1541 1540 1539 1538 1537 1537 1536 1535 1534 1533 1531 1530 1528 1526 1524 1522 1520 1517 1515 1513 1510 1507 1504 1502 1499 1495 1491 1488 1485 1482 1480 1477 1475 1472 1470
1511 1513 1515 1517 1519 1520 1522 1524 1525 1526 1526 1527 1528 1530 1531 1533 1534 1535 1536 1537 1538 1539 1539 1540 1541 1542 1543 1543 1544 1544 1544 1544 1544 1544 1544 1544 1544 1544 1544 1544 1544 1544 1545 1545 1545 1545 1545 1544 1544 1543 1542 1541 1540 1539 1539 1539 1538 1537 1536 1534 1533 1531 1529 1528 1525 1523 1521 1518 1516 1515 1512 1508 1506 1503 1499 1495 1493 1492 1490 1488 1484 1481 1479 1476 1472
1510 1512 1514 1516 1518 1520 1521 1523 1524 1525 1526 1526 1528 1529 1531 1533 1534 1535 1536 1537 1538 1538 1539 1540 1541 1542 1543 1543 1544 1544 1544 1545 1544 1545 1545 1544 1545 1544 1544 1544 1545 1545 1546 1546 1546 1546 1546 1546 1545 1544 1543 1542 1542 1541 1540 1540 1539 1538 1537 1536 1534 1532 1531 1529 1527 1525 1523 1520 1519 1517 1514 1511 1509 1506 1503 1501 1499 1497 1493 1490 1486 1484 1481 1477 1474
1509 1512 1513 1515 1517 1519 1520 1521 1522 1524 1524 1525 1527 1529 1531 1532 1534 1535 1536 1537 1537 1538 1539 1540 1540 1541 1542 1543 1543 1544 1544 1544 1544 1545 1545 1545 1545 1545 1545 1545 1545 1546 1546 1546 1546 1546 1547 1546 1546 1545 1544 1543 1543 1542 1542 1541 1541 1540 1538 1537 1535 1534 1532 1530 1529 1528 1526 1524 1522 1520 1517 1515 1513 1511 1508 1506 1503 1499 1496 1492 1489 1485 1482 1478 1475
1509 1511 1513 1515 1517 1518 1519 1520 1521 1522 1523 1524 1526 1528 1530 1531 1533 1534 1536 1536 1537 1538 1538 1539 1540 1541 1542 1542 1543 1544 1544 1544 1544 1545 1545 1545 1545 1546 1546 1546 1546 1546 1547 1547 1547 1547 1547 1547 1546 1545 1545 1544 1544 1544 1543 1542 1542 1541 1540 1538 1537 1535 1533 1532 1531 1530 1528 1527 1525 1522 1520 1519 1517 1514 1511 1509 1506 1503 1499 1496 1492 1488 1485 1482 1479
1508 1510 1512 1514 1516 1517 1518 1518 1519 1520 1521 1523 1525 1527 1529 1530 1532 1533 1535 1536 1537 1537 1538 1539 1540 1541 1542 1542 1543 1543 1544 1544 1544 1545 1545 1545 1546 1546 1547 1547 1547 1547 1547 1547 1548 1548 1548 1548 1547 1546 1545 1545 1546 1546 1544 1544 1543 1543 1541 1540 1538 1536 1535 1534 1533 1532 1531 1529 1527 1525 1523 1522 1520 1517 1515 1512 1509 1506 1502 1499 1495 1492 1489 1486 1484
1507 1509 1511 1513 1514 1515 1516 1517 1518 1519 1520 1523 1524 1526 1528 1529 1531 1533 1534 1535 1536 1537 1537 1538 1539 1540 1541 1542 1543 1543 1543 1544 1544 1545 1545 1546 1546 1547 1547 1548 1548 1548 1548 1548 1548 1548 1548 1548 1547 1546 1546 1546 1547 1547 1546 1545 1544 1544 1543 1541 1539 1538 1537 1536 1535 1534 1533 1532 1530 1528 1527 1525 1523 1521 1518 1515 1512 1508 1505 1502 1499 1495 1492 1490 1488
1506 1508 1510 1511 1513 1513 1514 1515 1516 1517 1519 1521 1523 1525 1527 1529 1530 1532 1533 1534 1535 1536 1537 1538 1539 1540 1541 1542 1542 1543 1543 1544 1544 1545 1545 1546 1547 1548 1548 1548 1548 1548 1548 1548 1548 1548 1548 1548 1547 1547 1547 1547 1548 1547 1547 1546 1545 1545 1544 1542 1540 1539 1538 1537 1537 1536 1535 1534 1532 1531 1529 1528 1526 1524 1521 1518 1515 1512 1509 1506 1503 1499 1496 1494 1491
1503 1505 1506 1507 1508 1509 1511 1513 1514 1515 1517 1519 1521 1523 1526 1528 1530 1531 1532 1533 1534 1535 1536 1537 1538 1539 1540 1541 1542 1542 1543 1543 1544 1545 1546 1547 1548 1548 1549 1549 1549 1549 1549 1549 1549 1549 1548 1548 1548 1548 1548 1548 1548 1548 1547 1547 1546 1546 1545 1544 1542 1541 1540 1539 1538 1538 1537 1535 1534 1533 1531 1530 1528 1526 1523 1520 1518 1515 1513 1509 1505 1502 1498 1494 1491
1500 1502 1503 1503 1504 1505 1507 1509 1511 1512 1514 1516 1519 1522 1524 1527 1528 1530 1531 1532 1533 1534 1536 1537 1538 1539 1540 1541 1541 1542 1542 1543 1544 1545 1546 1547 1548 1549 1549 1549 1549 1550 1549 1549 1549 1549 1549 1549 1548 1548 1549 1549 1549 1549 1548 1548 1547 1546 1546 1545 1543 1542 1541 1541 1540 1539 1538 1537 1536 1534 1533 1532 1529 1527 1525 1522 1519 1517 1513 1508 1505 1503 1499 1495 1493
1498 1499 1501 1502 1503 1503 1503 1505 1507 1509 1511 1514 1517 1521 1524 1526 1527 1529 1530 1531 1532 1534 1535 1536 1537 1538 1540 1541 1541 1542 1543 1543 1544 1545 1546 1548 1549 1549 1550 1550 1550 1550 1550 1550 1549 1549 1549 1549 1549 1549 1549 1549 1549 1549 1549 1548 1548 1547 1547 1546 1544 1543 1542 1542 1542 1541 1540 1539 1537 1536 1535 1533 1531 1529 1526 1523 1521 1518 1513 1509 1508 1505 1501 1498 1497
1496 1497 1500 1501 1501 1502 1502 1502 1504 1507 1510 1513 1517 1520 1523 1525 1527 1528 1529 1530 1532 1533 1534 1536 1537 1538 1539 1540 1541 1542 1543 1544 1545 1546 1547 1548 1549 1550 1550 1550 1550 1550 1550 1550 1550 1549 1549 1549 1549 1550 1550 1550 1550 1550 1549 1549 1548 1548 1548 1547 1545 1544 1544 1543 1543 1542 1541 1540 1539 1538 1536 1534 1532 1530 1527 1525 1522 1519 1516 1513 1511 1508 1504 1502 1500
1494 1497 1499 1500 1500 1501 1502 1503 1506 1510 1512 1514 1517 1520 1522 1524 1526 1527 1528 1529 1531 1532 1534 1535 1537 1538 1539 1540 1541 1543 1543 1544 1545 1546 1547 1548 1549 1550 1550 1550 1550 1550 1550 1550 1550 1550 1550 1550 1550 1550 1550 1550 1550 1550 1550 1549 1549 1549 1548 1547 1546 1545 1545 1545 1544 1543 1542 1541 1540 1538 1537 1535 1533 1531 1529 1526 1524 1521 1519 1516 1514 1511 1508 1506 1503
1494 1496 1498 1499 1500 1501 1503 1506 1510 1514 1516 1516 1518 1520 1522 1524 1525 1527 1528 1529 1530 1532 1533 1535 1536 1538 1539 1541 1542 1543 1544 1545 1546 1547 1548 1549 1549 1550 1550 1551 1551 1551 1550 1550 1550 1550 1550 1550 1550 1550 1550 1550 1550 1550 1550 1549 1549 1549 1549 1548 1547 1546 1546 1546 1545 1544 1543 1542 1541 1539 1538 1536 1534 1532 1530 1528 1525 1523 1521 1519 1516 1514 1511 1509 1506
1493 1495 1496 1498 1499 1500 1502 1506 1508 1511 1514 1516 1517 1519 1521 1523 1525 1526 1528 1528 1530 1531 1533 1534 1536 1537 1539 1541 1542 1543 1544 1545 1546 1547 1548 1549 1549 1550 1550 1551 1551 1551 1551 1551 1551 1551 1551 1551 1551 1551 1550 1550 1550 1550 1550 1550 1550 1549 1549 1548 1547 1547 1547 1547 1546 1546 1545 1543 1542 1540 1539 1537 1535 1533 1531 1529 1527 1525 1523 1521 1518 1516 1514 1511 1509
1492 1494 1495 1496 1497 1498 1502 1505 1506 1508 1511 1513 1516 1518 1520 1522 1524 1526 1527 1528 1529 1530 1532 1534 1535 1537 1539 1540 1542 1543 1544 1545 1546 1547 1547 1548 1549 1549 1550 1551 1551 1551 1551 1551 1551 1551 1551 1551 1551 1551 1551 1551 1550 1550 1550 1550 1550 1550 1549 1548 1548 1548 1548 1547 1547 1546 1545 1544 1543 1541 1539 1537 1536 1534 1532 1530 1528 1527 1525 1522 1521 1519 1516 1515 1513
1491 1493 1494 1494 1495 1499 1503 1506 1507 1509 1510 1513 1515 1517 1519 1521 1523 1525 1526 1527 1528 1529 1531 1533 1535 1536 1538 1540 1541 1543 1544 1545 1546 1547 1547 1548 1549 1549 1550 1550 1551 1551 1551 1552 1552 1552 1552 1551 1551 1551 1551 1551 1551 1551 1550 1550 1550 1550 1549 1549 1549 1548 1548 1548 1547 1547 1546 1545 1543 1542 1540 1538 1537 1535 1533 1531 1530 1529 1527 1525 1523 1521 1519 1517 1516
1490 1492 1493 1494 1496 1501 1504 1506 1508 1509 1511 1513 1514 1516 1518 1520 1522 1524 1525 1526 1527 1529 1530 1532 1534 1536 1538 1539 1541 1542 1543 1544 1545 1546 1547 1548 1548 1549 1549 1550 1551 1551 1552 1552 1552 1552 1552 1552 1552 1551 1551 1551 1551 1551 1551 1551 1550 1550 1550 1550 1549 1549 1549 1548 1548 1547 1546 1545 1544 1542 1541 1539 1538 1536 1534 1533 1532 1530 1528 1526 1525 1523 1521 1520 1518
1489 1491 1491 1493 1497 1500 1502 1504 1506 1508 1510 1512 1514 1516 1518 1519 1521 1523 1524 1525 1527 1528 1530 1531 1533 1535 1537 1539 1540 1541 1542 1544 1544 1545 1546 1547 1547 1548 1549 1550 1551 1551 1552 1552 1552 1553 1552 1552 1552 1552 1552 1552 1552 1552 1551 1551 1551 1551 1551 1550 1550 1549 1549 1548 1548 1547 1546 1545 1544 1543 1542 1540 1539 1538 1536 1535 1533 1531 1530 1528 1527 1525 1523 1522 1520
1486 1489 1491 1493 1496 1498 1499 1500 1503 1506 1508 1510 1513 1515 1517 1519 1520 1522 1523 1524 1525 1527 1528 1530 1532 1534 1536 1537 1539 1540 1542 1543 1543 1544 1544 1545 1546 1547 1548 1550 1550 1551 1552 1552 1552 1553 1553 1552 1552 1552 1552 1552 1552 1552 1552 1551 1551 1551 1551 1551 1550 1550 1549 1549 1548 1548 1547 1546 1545 1544 1542 1541 1540 1539 1538 1536 1534 1533 1531 1530 1528 1527 1525 1523 1522
1485 1488 1491 1493 1495 1497 1498 1500 1502 1504 1506 1509 1511 1514 1516 1518 1519 1521 1522 1523 1524 1525 1527 1529 1531 1533 1534 1536 1538 1539 1540 1541 1542 1543 1543 1544 1546 1547 1548 1549 1550 1551 1552 1552 1552 1553 1553 1552 1552 1552 1552 1552 1552 1552 1552 1552 1552 1552 1551 1551 1550 1550 1549 1549 1548 1548 1547 1546 1545 1544 1543 1542 1541 1540 1538 1537 1536 1534 1533 1531 1530 1528 1526 1525 1523
1484 1486 1488 1491 1493 1496 1498 1500 1501 1503 1505 1508 1510 1513 1515 1517 1519 1520 1521 1522 1524 1525 1527 1528 1530 1532 1534 1535 1537 1538 1539 1540 1541 1542 1543 1544 1546 1547 1548 1549 1549 1550 1551 1552 1552 1552 1552 1552 1552 1552 1552 1552 1552 1552 1552 1552 1552 1552 1551 1551 1550 1550 1549 1549 1548 1548 1547 1546 1545 1545 1544 1543 1541 1540 1539 1538 1537 1535 1534 1533 1531 1530 1528 1526 1524
1483 1485 1487 1489 1492 1495 1497 1499 1500 1502 1504 1507 1509 1512 1514 1516 1518 1519 1520 1522 1523 1525 1527 1529 1531 1533 1534 1536 1537 1538 1539 1540 1541 1542 1543 1544 1546 1546 1547 1548 1549 1550 1551 1551 1552 1552 1552 1552 1552 1551 1551 1552 1552 1552 1552 1552 1552 1552 1551 1551 1550 1549 1549 1549 1548 1548 1547 1546 1545 1545 1544 1543 1542 1541 1540 1539 1537 1536 1535 1534 1532 1531 1529 1527 1526
1482 1484 1486 1488 1491 1494 1496 1497 1499 1501 1504 1506 1508 1511 1513 1515 1516 1518 1519 1521 1523 1524 1526 1529 1531 1533 1534 1536 1537 1539 1540 1541 1542 1542 1543 1544 1545 1546 1547 1547 1548 1549 1550 1551 1551 1551 1551 1551 1551 1551 1551 1551 1551 1552 1552 1552 1551 1551 1551 1550 1550 1549 1549 1549 1548 1548 1547 1546 1545 1544 1544 1543 1542 1541 1540 1539 1538 1537 1536 1534 1533 1532 1530 1529 1527
1481 1483 1485 1488 1490 1493 1495 1496 1498 1500 1503 1505 1507 1509 1511 1513 1515 1517 1518 1520 1522 1523 1525 1528 1530 1532 1534 1536 1537 1538 1539 1540 1541 1542 1543 1544 1544 1545 1546 1547 1548 1549 1549 1550 1550 1550 1550 1550 1550 1550 1551 1551 1551 1551 1551 1551 1551 1551 1550 1550 1549 1549 1549 1548 1548 1547 1546 1546 1545 1544 1543 1543 1542 1541 1540 1539 1538 1537 1536 1535 1534 1532 1531 1530 1528
1480 1483 1485 1488 1489 1491 1493 1495 1497 1499 1502 1504 1506 1508 1510 1512 1513 1515 1517 1519 1521 1523 1525 1527 1529 1531 1533 1535 1536 1538 1539 1540 1540 1541 1542 1543 1544 1545 1545 1546 1547 1548 1548 1549 1549 1549 1549 1549 1550 1550 1550 1550 1550 1551 1551 1550 1550 1550 1550 1549 1549 1548 1548 1548 1547 1547 1546 1545 1544 1544 1543 1542 1541 1541 1540 1539 1538 1537 1536 1535 1534 1533 1532 1530 1529
1480 1483 1485 1487 1488 1490 1492 1494 1497 1499 1501 1503 1505 1507 1509 1511 1512 1514 1516 1518 1520 1521 1524 1526 1528 1530 1532 1534 1536 1537 1538 1539 1540 1541 1541 1542 1543 1544 1544 1545 1546 1547 1547 1548 1548 1548 1548 1548 1549 1549 1549 1549 1550 1550 1550 1550 1550 1549 1549 1548 1548 1548 1548 1547 1547 1546 1546 1545 1544 1543 1542 1541 1541 1540 1539 1539 1538 1537 1536 1535 1534 1533 1532 1531 1529
1479 1482 1484 1486 1488 1490 1492 1494 1496 1498 1500 1502 1504 1506 1508 1509 1511 1513 1515 1517 1519 1520 1523 1525 1527 1528 1531 1533 1534 1536 1537 1538 1539 1540 1540 1541 1542 1542 1543 1544 1544 1545 1546 1546 1547 1547 1547 1547 1548 1548 1549 1549 1549 1549 1549 1549 1549 1549 1548 1548 1547 1547 1547 1546 1546 1546 1545 1544 1543 1543 1542 1541 1540 1539 1539 1538 1537 1537 1536 1535 1534 1533 1532 1531 1530
1479 1481 1483 1485 1487 1489 1491 1493 1495 1497 1500 1502 1503 1505 1507 1508 1510 1512 1514 1517 1519 1521 1522 1524 1526 1528 1530 1531 1533 1535 1536 1537 1538 1539 1539 1540 1541 1541 1541 1542 1543 1544 1544 1545 1545 1546 1546 1546 1547 1547 1548 1548 1548 1549 1549 1549 1548 1548 1547 1547 1546 1546 1545 1545 1545 1544 1544 1544 1543 1542 1541 1540 1540 1539 1538 1537 1537 1536 1535 1534 1534 1533 1532 1531 1530
1478 1480 1482 1484 1486 1488 1490 1492 1494 1496 1499 1500 1502 1504 1506 1507 1509 1511 1513 1516 1518 1520 1522 1524 1525 1527 1528 1530 1532 1533 1534 1536 1537 1537 1538 1538 1539 1539 1540 1541 1542 1542 1543 1543 1544 1544 1545 1545 1546 1546 1547 1547 1547 1548 1548 1548 1548 1547 1547 1546 1545 1545 1544 1544 1543 1543 1543 1542 1542 1541 1540 1540 1539 1538 1537 1536 1536 1535 1534 1534 1533 1532 1531 1530 1529
1477 1479 1481 1482 1485 1487 1489 1491 1493 1495 1498 1499 1501 1503 1504 1506 1508 1510 1512 1515 1517 1519 1521 1523 1524 1525 1527 1529 1531 1532 1533 1534 1534 1534 1535 1536 1536 1537 1538 1540 1540 1541 1542 1542 1543 1543 1543 1544 1545 1545 1546 1546 1546 1547 1547 1547 1546 1546 1546 1545 1545 1544 1543 1543 1542 1542 1541 1541 1541 1540 1539 1539 1538 1537 1536 1535 1535 1534 1533 1533 1532 1531 1530 1530 1529
1477 1478 1480 1482 1484 1486 1488 1490 1492 1494 1496 1498 1500 1502 1503 1505 1506 1509 1511 1514 1516 1518 1520 1521 1523 1524 1526 1528 1529 1530 1531 1531 1532 1532 1533 1534 1535 1536 1537 1538 1539 1539 1540 1541 1541 1542 1542 1543 1543 1544 1544 1545 1545 1545 1545 1545 1545 1545 1544 1544 1543 1543 1542 1541 1541 1540 1540 1539 1539 1538 1538 1537 1537 1536 1535 1534 1534 1533 1532 1532 1531 1530 1529 1529 1528
1475 1477 1479 1481 1483 1486 1487 1488 1490 1492 1494 1496 1498 1500 1501 1503 1505 1507 1510 1512 1514 1516 1518 1520 1522 1523 1525 1526 1527 1528 1529 1530 1530 1531 1532 1533 1533 1534 1535 1536 1537 1538 1538 1539 1540 1540 1541 1542 1542 1543 1543 1543 1544 1544 1544 1544 1544 1543 1543 1543 1542 1541 1541 1540 1539 1539 1538 1538 1537 1537 1536 1536 1535 1534 1534 1533 1532 1531 1531 1530 1530 1529 1528 1527 1527
1474 1475 1477 1479 1482 1484 1485 1487 1489 1491 1493 1495 1496 1498 1499 1502 1504 1506 1509 1511 1513 1515 1517 1519 1521 1523 1524 1525 1526 1527 1528 1529 1530 1530 1531 1531 1532 1533 1533 1534 1535 1536 1537 1538 1538 1539 1540 1540 1541 1541 1541 1542 1542 1542 1542 1542 1542 1542 1541 1541 1540 1540 1539 1539 1538 1537 1536 1536 1535 1535 1534 1534 1533 1533 1532 1531 1531 1530 1529 1528 1528 1527 1527 1526 1525
1472 1473 1475 1477 1479 1481 1483 1486 1488 1490 1492 1494 1495 1497 1499 1501 1503 1505 1507 1509 1512 1513 1515 1517 1520 1521 1523 1524 1524 1525 1526 1527 1528 1529 1529 1530 1531 1532 1532 1533 1534 1535 1535 1536 1537 1538 1538 1539 1539 1539 1540 1540 1540 1540 1540 1540 1540 1540 1540 1539 1539 1538 1538 1537 1536 1535 1535 1534 1533 1533 1532 1532 1531 1531 1530 1530 1529 1528 1527 1527 1526 1526 1525 1524 1524
1470 1472 1474 1475 1476 1479 1481 1484 1486 1489 1491 1493 1495 1497 1499 1501 1502 1504 1506 1508 1510 1512 1514 1516 1518 1520 1521 1522 1523 1523 1524 1525 1526 1526 1527 1528 1529 1530 1531 1532 1532 1533 1534 1535 1535 1536 1536 1537 1537 1538 1538 1538 1538 1538 1538 1538 1538 1538 1538 1537 1537 1536 1535 1535 1534 1534 1533 1532 1532 1531 1530 1530 1529 1528 1528 1528 1527 1526 1525 1525 1524 1524 1523 1522 1522
1468 1470 1472 1474 1475 1478 1480 1482 1485 1487 1490 1493 1495 1498 1500 1501 1502 1503 1505 1506 1508 1509 1511 1514 1516 1517 1519 1520 1520 1521 1521 1522 1523 1524 1526 1527 1528 1528 1529 1530 1531 1532 1532 1533 1534 1534 1535 1535 1535 1536 1536 1536 1536 1536 1536 1536 1536 1536 1535 1535 1534 1534 1533 1533 1532 1532 1531 1530 1529 1529 1528 1527 1527 1526 1526 1525 1525 1524 1523 1523 1522 1521 1521 1520 1520
1467 1469 1471 1472 1474 1476 1479 1481 1484 1486 1488 1491 1494 1497 1500 1501 1502 1503 1504 1504 1505 1507 1508 1510 1512 1514 1515 1517 1517 1518 1519 1520 1522 1523 1524 1525 1526 1527 1528 1529 1530 1530 1531 1531 1532 1532 1532 1533 1533 1533 1533 1533 1534 1534 1534 1534 1533 1533 1533 1533 1532 1532 1531 1531 1530 1530 1529 1528 1527 1526 1526 1525 1524 1524 1523 1523 1522 1522 1521 1520 1520 1519 1518 1518 1517
1465 1468 1470 1472 1474 1475 1477 1479 1482 1484 1486 1488 1491 1495 1498 1500 1502 1503 1503 1504 1504 1505 1506 1508 1510 1511 1512 1513 1514 1515 1517 1518 1519 1521 1522 1523 1524 1525 1526 1527 1528 1528 1529 1530 1530 1530 1530 1530 1530 1530 1531 1531 1531 1531 1531 1531 1531 1531 1530 1530 1530 1529 1529 1529 1528 1528 1527 1526 1525 1524 1523 1523 1522 1521 1521 1520 1520 1519 1518 1518 1517 1516 1516 1515 1515
1465 1467 1469 1471 1473 1474 1476 1478 1481 1484 1486 1488 1490 1493 1496 1498 1500 1502 1503 1503 1503 1503 1504 1506 1508 1509 1510 1511 1512 1513 1515 1516 1518 1519 1520 1522 1523 1524 1525 1526 1526 1527 1527 1528 1528 1528 1528 1528 1528 1528 1528 1528 1528 1528 1528 1528 1528 1528 1528 1528 1527 1527 1527 1527 1526 1525 1525 1523 1522 1522 1521 1520 1519 1519 1518 1518 1517 1516 1516 1515 1515 1514 1513 1513 1512
1465 1466 1468 1470 1472 1473 1475 1477 1480 1482 1485 1487 1489 1492 1494 1497 1499 1500 1501 1502 1503 1503 1504 1505 1507 1509 1510 1510 1511 1512 1513 1515 1516 1517 1519 1520 1521 1522 1523 1524 1524 1525 1525 1525 1525 1525 1525 1525 1525 1525 1525 1526 1526 1526 1525 1525 1525 1525 1525 1525 1525 1524 1524 1524 1524 1523 1522 1521 1520 1519 1518 1517 1516 1516 1515 1514 1514 1513 1513 1512 1512 1511 1510 1510 1509
1464 1466 1468 1469 1471 1473 1475 1477 1479 1481 1483 1486 1489 1491 1493 1495 1497 1499 1500 1502 1502 1503 1504 1506 1507 1508 1509 1510 1510 1511 1512 1514 1515 1516 1517 1519 1520 1521 1521 1522 1522 1523 1523 1523 1523 1522 1522 1522 1523 1523 1523 1523 1523 1523 1523 1523 1522 1522 1522 1522 1522 1522 1521 1521 1521 1520 1520 1519 1518 1517 1515 1514 1513 1513 1512 1511 1511 1510 1510 1509 1508 1508 1507 1507 1506
1464 1466 1467 1468 1470 1472 1475 1477 1479 1480 1482 1485 1487 1490 1492 1494 1496 1498 1499 1500 1501 1503 1504 1505 1507 1508 1509 1509 1510 1511 1512 1513 1514 1515 1516 1517 1518 1518 1519 1520 1520 1520 1520 1520 1520 1520 1520 1519 1520 1520 1520 1520 1520 1520 1520 1520 1520 1519 1519 1519 1519 1518 1518 1518 1518 1517 1517 1516 1515 1514 1513 1512 1511 1510 1509 1509 1508 1507 1507 1506 1505 1505 1504 1503 1503
1464 1465 1466 1468 1469 1472 1474 1477 1478 1480 1482 1484 1486 1489 1491 1493 1495 1496 1498 1499 1500 1501 1503 1504 1506 1507 1508 1509 1510 1510 1511 1512 1513 1514 1514 1515 1515 1516 1517 1517 1517 1517 1518 1518 1518 1517 1517 1517 1517 1517 1517 1517 1518 1517 1517 1517 1517 1516 1516 1516 1515 1515 1515 1514 1514 1514 1513 1512 1511 1511 1510 1509 1508 1507 1506 1506 1505 1504 1503 1502 1502 1501 1500 1499 1499